Time,TemperatureF,DewpointF,PressureIn,WindDirection,WindDirectionDegrees,WindSpeedMPH,WindSpeedGustMPH,Humidity,HourlyPrecipIn,Conditions,Clouds,dailyrainin,SolarRadiationWatts/m^2,SoftwareType,DateUTC
2013-07-31 00:00:00,66.6,65.0,30.12,SE,142,5.0,-999.0,94,-99.99,,,0.01,0,weatherlink.com 1.10,2013-07-31 04:00:00,
2013-07-31 00:15:00,66.4,65.0,30.13,SE,142,6.0,-999.0,94,-99.99,,,0.01,0,weatherlink.com 1.10,2013-07-31 04:15:00,
2013-07-31 00:30:00,66.3,65.0,30.12,SE,142,3.0,-999.0,95,-99.99,,,0.01,0,weatherlink.com 1.10,2013-07-31 04:30:00,
2013-07-31 00:45:00,66.0,65.0,30.12,SE,142,3.0,-999.0,95,-99.99,,,0.01,0,weatherlink.com 1.10,2013-07-31 04:45:00,
2013-07-31 01:00:00,65.9,64.0,30.12,SE,142,2.0,-999.0,94,-99.99,,,0.02,0,weatherlink.com 1.10,2013-07-31 05:00:00,
2013-07-31 01:15:00,65.6,64.0,30.12,SE,142,0.0,-999.0,94,-99.99,,,0.03,0,weatherlink.com 1.10,2013-07-31 05:15:00,
2013-07-31 01:30:00,65.5,64.0,30.12,SE,142,3.0,-999.0,94,-99.99,,,0.03,0,weatherlink.com 1.10,2013-07-31 05:30:00,
2013-07-31 01:45:00,65.4,64.0,30.12,SE,142,3.0,-999.0,94,-99.99,,,0.03,0,weatherlink.com 1.10,2013-07-31 05:45:00,
2013-07-31 02:00:00,65.4,63.0,30.11,SE,142,4.0,-999.0,92,-99.99,,,0.03,0,weatherlink.com 1.10,2013-07-31 06:00:00,
2013-07-31 02:15:00,66.3,63.0,30.09,SE,142,2.0,-999.0,89,-99.99,,,0.03,0,weatherlink.com 1.10,2013-07-31 06:15:00,
2013-07-31 02:30:00,66.2,64.0,30.09,SE,142,3.0,-999.0,91,-99.99,,,0.03,0,weatherlink.com 1.10,2013-07-31 06:30:00,
2013-07-31 02:45:00,65.9,63.0,30.10,SE,142,2.0,-999.0,91,-99.99,,,0.03,0,weatherlink.com 1.10,2013-07-31 06:45:00,
2013-07-31 03:00:00,65.8,64.0,30.09,SE,142,3.0,-999.0,92,-99.99,,,0.03,0,weatherlink.com 1.10,2013-07-31 07:00:00,
2013-07-31 03:15:00,65.7,63.0,30.09,SE,142,2.0,-999.0,92,-99.99,,,0.03,0,weatherlink.com 1.10,2013-07-31 07:15:00,
2013-07-31 03:30:00,65.5,63.0,30.09,SE,142,0.0,-999.0,92,-99.99,,,0.03,0,weatherlink.com 1.10,2013-07-31 07:30:00,
2013-07-31 03:45:00,65.6,63.0,30.09,SE,142,0.0,-999.0,90,-99.99,,,0.03,0,weatherlink.com 1.10,2013-07-31 07:45:00,
2013-07-31 04:00:00,65.8,63.0,30.09,SE,142,0.0,-999.0,91,-99.99,,,0.04,0,weatherlink.com 1.10,2013-07-31 08:00:00,
2013-07-31 04:15:00,65.6,63.0,30.09,SE,142,3.0,-999.0,92,-99.99,,,0.04,0,weatherlink.com 1.10,2013-07-31 08:15:00,
2013-07-31 04:30:00,65.3,63.0,30.09,SE,142,3.0,-999.0,93,-99.99,,,0.05,0,weatherlink.com 1.10,2013-07-31 08:30:00,
2013-07-31 04:45:00,65.0,63.0,30.09,SE,142,0.0,-999.0,93,-99.99,,,0.05,0,weatherlink.com 1.10,2013-07-31 08:45:00,
2013-07-31 05:00:00,64.8,63.0,30.09,SE,142,2.0,-999.0,94,-99.99,,,0.06,0,weatherlink.com 1.10,2013-07-31 09:00:00,
2013-07-31 05:15:00,64.5,63.0,30.08,NNE,22,5.0,-999.0,95,-99.99,,,0.06,0,weatherlink.com 1.10,2013-07-31 09:15:00,
2013-07-31 05:30:00,64.2,63.0,30.07,North,5,8.0,-999.0,95,-99.99,,,0.08,0,weatherlink.com 1.10,2013-07-31 09:30:00,
2013-07-31 05:45:00,64.0,63.0,30.07,North,360,8.0,-999.0,96,-99.99,,,0.08,0,weatherlink.com 1.10,2013-07-31 09:45:00,
2013-07-31 06:00:00,63.8,63.0,30.08,North,360,5.0,-999.0,96,-99.99,,,0.08,0,weatherlink.com 1.10,2013-07-31 10:00:00,
2013-07-31 06:15:00,63.8,63.0,30.09,North,360,0.0,-999.0,96,-99.99,,,0.08,0,weatherlink.com 1.10,2013-07-31 10:15:00,
2013-07-31 06:30:00,63.5,62.0,30.10,North,360,3.0,-999.0,96,-99.99,,,0.08,0,weatherlink.com 1.10,2013-07-31 10:30:00,
2013-07-31 06:45:00,63.6,63.0,30.10,North,360,4.0,-999.0,96,-99.99,,,0.08,0,weatherlink.com 1.10,2013-07-31 10:45:00,
2013-07-31 07:00:00,63.3,62.0,30.10,North,360,3.0,-999.0,96,-99.99,,,0.08,0,weatherlink.com 1.10,2013-07-31 11:00:00,
2013-07-31 07:15:00,63.3,62.0,30.11,North,360,4.0,-999.0,95,-99.99,,,0.08,9,weatherlink.com 1.10,2013-07-31 11:15:00,
2013-07-31 07:30:00,63.8,62.0,30.10,East,82,10.0,-999.0,95,-99.99,,,0.08,18,weatherlink.com 1.10,2013-07-31 11:30:00,
2013-07-31 07:45:00,64.4,63.0,30.11,East,91,3.0,-999.0,94,-99.99,,,0.08,12,weatherlink.com 1.10,2013-07-31 11:45:00,
2013-07-31 08:00:00,64.4,63.0,30.11,East,91,4.0,-999.0,94,-99.99,,,0.08,19,weatherlink.com 1.10,2013-07-31 12:00:00,
2013-07-31 08:15:00,64.4,63.0,30.10,East,91,5.0,-999.0,95,-99.99,,,0.08,46,weatherlink.com 1.10,2013-07-31 12:15:00,
2013-07-31 08:30:00,64.7,63.0,30.10,East,91,3.0,-999.0,94,-99.99,,,0.08,58,weatherlink.com 1.10,2013-07-31 12:30:00,
2013-07-31 08:45:00,64.6,63.0,30.11,East,91,3.0,-999.0,93,-99.99,,,0.08,49,weatherlink.com 1.10,2013-07-31 12:45:00,
2013-07-31 09:00:00,64.7,63.0,30.11,East,91,4.0,-999.0,94,-99.99,,,0.08,53,weatherlink.com 1.10,2013-07-31 13:00:00,
2013-07-31 09:15:00,64.8,63.0,30.11,East,91,5.0,-999.0,95,-99.99,,,0.08,56,weatherlink.com 1.10,2013-07-31 13:15:00,
2013-07-31 09:30:00,64.8,63.0,30.10,East,91,4.0,-999.0,95,-99.99,,,0.08,113,weatherlink.com 1.10,2013-07-31 13:30:00,
2013-07-31 09:45:00,64.9,64.0,30.10,East,101,3.0,-999.0,96,-99.99,,,0.09,88,weatherlink.com 1.10,2013-07-31 13:45:00,
2013-07-31 10:00:00,64.6,64.0,30.10,ESE,107,7.0,-999.0,96,-99.99,,,0.09,121,weatherlink.com 1.10,2013-07-31 14:00:00,
2013-07-31 10:15:00,64.5,63.0,30.10,ESE,113,3.0,-999.0,96,-99.99,,,0.09,81,weatherlink.com 1.10,2013-07-31 14:15:00,
2013-07-31 10:30:00,64.7,64.0,30.10,ESE,113,4.0,-999.0,97,-99.99,,,0.09,155,weatherlink.com 1.10,2013-07-31 14:30:00,
2013-07-31 10:45:00,64.5,64.0,30.09,ESE,123,6.0,-999.0,97,-99.99,,,0.09,72,weatherlink.com 1.10,2013-07-31 14:45:00,
2013-07-31 11:00:00,64.3,64.0,30.10,SE,128,7.0,-999.0,97,-99.99,,,0.09,77,weatherlink.com 1.10,2013-07-31 15:00:00,
2013-07-31 11:15:00,64.4,64.0,30.09,SE,130,7.0,-999.0,97,-99.99,,,0.09,146,weatherlink.com 1.10,2013-07-31 15:15:00,
2013-07-31 11:30:00,64.4,64.0,30.09,SE,125,2.0,-999.0,97,-99.99,,,0.09,58,weatherlink.com 1.10,2013-07-31 15:30:00,
2013-07-31 11:45:00,64.4,64.0,30.08,SE,127,5.0,-999.0,97,-99.99,,,0.10,54,weatherlink.com 1.10,2013-07-31 15:45:00,
2013-07-31 12:00:00,64.4,64.0,30.08,WSW,239,6.0,-999.0,97,-99.99,,,0.12,153,weatherlink.com 1.10,2013-07-31 16:00:00,
2013-07-31 12:15:00,65.2,65.0,30.08,SSE,157,3.0,-999.0,98,-99.99,,,0.12,241,weatherlink.com 1.10,2013-07-31 16:15:00,
2013-07-31 12:30:00,65.0,65.0,30.08,SSE,156,4.0,-999.0,98,-99.99,,,0.12,274,weatherlink.com 1.10,2013-07-31 16:30:00,
2013-07-31 12:45:00,64.9,64.0,30.08,SSE,156,4.0,-999.0,98,-99.99,,,0.12,329,weatherlink.com 1.10,2013-07-31 16:45:00,
2013-07-31 13:00:00,65.2,65.0,30.07,SSE,156,3.0,-999.0,98,-99.99,,,0.12,158,weatherlink.com 1.10,2013-07-31 17:00:00,
2013-07-31 13:15:00,65.4,65.0,30.07,SSE,157,5.0,-999.0,98,-99.99,,,0.12,183,weatherlink.com 1.10,2013-07-31 17:15:00,
2013-07-31 13:30:00,65.2,65.0,30.07,SSE,151,2.0,-999.0,98,-99.99,,,0.12,169,weatherlink.com 1.10,2013-07-31 17:30:00,
2013-07-31 13:45:00,65.4,65.0,30.06,SSE,150,5.0,-999.0,98,-99.99,,,0.12,195,weatherlink.com 1.10,2013-07-31 17:45:00,
2013-07-31 14:00:00,65.6,65.0,30.05,SSE,150,3.0,-999.0,98,-99.99,,,0.12,179,weatherlink.com 1.10,2013-07-31 18:00:00,
2013-07-31 14:15:00,65.9,65.0,30.04,SSE,150,3.0,-999.0,98,-99.99,,,0.12,137,weatherlink.com 1.10,2013-07-31 18:15:00,
2013-07-31 14:30:00,65.9,65.0,30.03,SSE,150,3.0,-999.0,98,-99.99,,,0.12,218,weatherlink.com 1.10,2013-07-31 18:30:00,
2013-07-31 14:45:00,65.8,65.0,30.03,SSE,150,4.0,-999.0,98,-99.99,,,0.12,192,weatherlink.com 1.10,2013-07-31 18:45:00,
2013-07-31 15:00:00,66.0,66.0,30.03,SSE,150,4.0,-999.0,98,-99.99,,,0.12,269,weatherlink.com 1.10,2013-07-31 19:00:00,
2013-07-31 15:15:00,66.5,66.0,30.02,SSE,150,1.0,-999.0,98,-99.99,,,0.12,218,weatherlink.com 1.10,2013-07-31 19:15:00,
2013-07-31 15:30:00,66.9,66.0,30.01,SSE,149,1.0,-999.0,98,-99.99,,,0.12,53,weatherlink.com 1.10,2013-07-31 19:30:00,
2013-07-31 15:45:00,66.7,66.0,30.00,SSE,150,3.0,-999.0,97,-99.99,,,0.12,91,weatherlink.com 1.10,2013-07-31 19:45:00,
2013-07-31 16:00:00,66.6,66.0,30.00,SE,128,15.0,-999.0,97,-99.99,,,0.12,23,weatherlink.com 1.10,2013-07-31 20:00:00,
2013-07-31 16:15:00,62.8,62.0,30.02,SE,136,2.0,-999.0,96,-99.99,,,0.13,35,weatherlink.com 1.10,2013-07-31 20:15:00,
2013-07-31 16:30:00,62.2,61.0,30.01,SE,136,5.0,-999.0,97,-99.99,,,0.13,63,weatherlink.com 1.10,2013-07-31 20:30:00,
2013-07-31 16:45:00,61.9,61.0,30.01,SE,138,1.0,-999.0,97,-99.99,,,0.13,83,weatherlink.com 1.10,2013-07-31 20:45:00,
2013-07-31 17:00:00,62.2,61.0,30.00,West,269,4.0,-999.0,97,-99.99,,,0.15,97,weatherlink.com 1.10,2013-07-31 21:00:00,
2013-07-31 17:15:00,63.0,62.0,29.99,West,269,3.0,-999.0,97,-99.99,,,0.16,179,weatherlink.com 1.10,2013-07-31 21:15:00,
2013-07-31 17:30:00,64.2,63.0,29.98,West,270,4.0,-999.0,97,-99.99,,,0.16,195,weatherlink.com 1.10,2013-07-31 21:30:00,
2013-07-31 17:45:00,64.7,64.0,29.97,West,270,0.0,-999.0,97,-99.99,,,0.16,392,weatherlink.com 1.10,2013-07-31 21:45:00,
2013-07-31 18:00:00,66.0,65.0,29.96,West,264,3.0,-999.0,97,-99.99,,,0.16,545,weatherlink.com 1.10,2013-07-31 22:00:00,
2013-07-31 18:15:00,66.6,65.0,29.96,West,276,2.0,-999.0,95,-99.99,,,0.00,118,weatherlink.com 1.10,2013-07-31 22:15:00,
2013-07-31 18:30:00,66.6,65.0,29.95,West,276,4.0,-999.0,94,-99.99,,,0.00,301,weatherlink.com 1.10,2013-07-31 22:30:00,
2013-07-31 18:45:00,66.5,65.0,29.95,West,277,0.0,-999.0,94,-99.99,,,0.00,144,weatherlink.com 1.10,2013-07-31 22:45:00,
2013-07-31 19:00:00,66.0,64.0,29.96,West,277,1.0,-999.0,93,-99.99,,,0.00,100,weatherlink.com 1.10,2013-07-31 23:00:00,
2013-07-31 19:15:00,66.0,64.0,29.95,West,277,1.0,-999.0,94,-99.99,,,0.00,123,weatherlink.com 1.10,2013-07-31 23:15:00,
2013-07-31 19:31:00,65.8,64.0,29.96,West,277,0.0,-999.0,95,-99.99,,,0.00,33,weatherlink.com 1.10,2013-07-31 23:31:00,
2013-07-31 19:45:00,65.3,64.0,29.97,West,276,0.0,-999.0,95,-99.99,,,0.00,26,weatherlink.com 1.10,2013-07-31 23:45:00,
2013-07-31 20:00:00,65.0,64.0,29.98,West,276,1.0,-999.0,96,-99.99,,,0.00,30,weatherlink.com 1.10,2013-08-01 00:00:00,
2013-07-31 20:15:00,64.5,63.0,29.98,West,277,3.0,-999.0,96,-99.99,,,0.00,14,weatherlink.com 1.10,2013-08-01 00:15:00,
2013-07-31 20:30:00,64.4,64.0,29.98,West,277,1.0,-999.0,97,-99.99,,,0.00,0,weatherlink.com 1.10,2013-08-01 00:30:00,
2013-07-31 20:45:00,64.3,64.0,29.98,WSW,252,3.0,-999.0,97,-99.99,,,0.00,0,weatherlink.com 1.10,2013-08-01 00:45:00,
2013-07-31 21:00:00,64.3,64.0,29.98,WSW,252,1.0,-999.0,97,-99.99,,,0.00,0,weatherlink.com 1.10,2013-08-01 01:00:00,
2013-07-31 21:15:00,64.2,63.0,29.99,WSW,252,2.0,-999.0,97,-99.99,,,0.00,0,weatherlink.com 1.10,2013-08-01 01:15:00,
2013-07-31 21:30:00,64.2,63.0,29.98,WSW,252,1.0,-999.0,97,-99.99,,,0.00,0,weatherlink.com 1.10,2013-08-01 01:30:00,
2013-07-31 21:45:00,64.2,64.0,29.98,SW,222,2.0,-999.0,98,-99.99,,,0.00,0,weatherlink.com 1.10,2013-08-01 01:45:00,
2013-07-31 22:00:00,64.2,64.0,29.98,SSW,196,5.0,-999.0,98,-99.99,,,0.00,0,weatherlink.com 1.10,2013-08-01 02:00:00,
2013-07-31 22:15:00,64.2,64.0,29.98,SSE,163,5.0,-999.0,98,-99.99,,,0.01,0,weatherlink.com 1.10,2013-08-01 02:15:00,
2013-07-31 22:30:00,64.3,64.0,29.98,SSE,148,5.0,-999.0,98,-99.99,,,0.01,0,weatherlink.com 1.10,2013-08-01 02:30:00,
2013-07-31 22:46:00,64.4,64.0,29.98,SSE,148,1.0,-999.0,98,-99.99,,,0.06,0,weatherlink.com 1.10,2013-08-01 02:46:00,
2013-07-31 23:00:00,64.3,64.0,29.98,South,175,2.0,-999.0,98,-99.99,,,0.11,0,weatherlink.com 1.10,2013-08-01 03:00:00,
2013-07-31 23:15:00,64.3,64.0,29.98,South,175,2.0,-999.0,98,-99.99,,,0.12,0,weatherlink.com 1.10,2013-08-01 03:15:00,
2013-07-31 23:31:00,63.9,63.0,29.97,SW,227,3.0,-999.0,98,-99.99,,,0.13,0,weatherlink.com 1.10,2013-08-01 03:31:00,
2013-07-31 23:46:00,63.9,63.0,29.97,WSW,254,1.0,-999.0,98,-99.99,,,0.13,0,weatherlink.com 1.10,2013-08-01 03:46:00,